SCP
9 6 4 3 3 5 6 5 4 3 3 3 3 2 2 2 2 3 4 5 6 7 6 4 2 2 1 2 2 2 1 1 1 1 1 1 1 1 1 2 2 1 1
11 8 4 3 3 4 5 5 4 4 4 3 3 3 3 3 3 3 4 4 6 7 7 5 3 2 1 2 2 2 1 1 1 1 1 1 1 1 1 1 2 2 2
12 10 6 3 3 3 4 5 5 5 5 4 4 4 4 3 3 3 4 5 5 6 7 6 4 3 3 3 2 2 2 1 1 1 1 1 1 1 1 1 2 2 2
11 10 7 4 3 3 4 5 6 6 5 5 5 4 4 3 3 3 4 5 5 5 6 6 4 4 4 4 3 3 2 2 1 1 1 1 1 1 1 1 2 2 2
9 10 9 6 4 4 4 6 8 7 6 5 5 4 4 3 3 3 4 5 5 4 5 6 5 4 4 4 3 3 3 2 2 1 2 2 1 1 1 1 2 2 2
8 10 10 8 5 3 4 6 7 7 6 5 5 4 4 3 3 4 4 5 4 4 5 5 4 4 3 3 2 2 2 2 2 2 2 2 2 1 1 1 1 1 2
8 10 11 8 5 3 4 5 7 7 6 5 5 5 4 4 4 5 5 6 5 5 5 4 4 3 3 2 2 2 2 2 2 2 2 2 2 2 1 1 1 1 1
8 9 10 7 5 4 4 6 8 8 7 6 5 5 5 5 5 6 6 6 6 6 5 5 4 3 3 2 2 3 3 3 3 2 2 2 2 2 2 1 1 1 1
8 8 8 6 5 5 5 7 10 12 10 8 6 6 6 6 6 6 6 5 5 5 5 4 4 4 3 3 3 3 3 3 3 2 2 2 2 2 2 2 2 1 1
8 7 6 5 5 6 6 9 14 16 13 10 8 7 7 6 6 6 5 5 5 5 5 4 4 4 4 4 4 3 3 3 2 2 2 2 2 2 2 2 2 2 1
7 6 5 5 5 6 8 12 16 18 15 11 10 10 9 8 7 7 6 5 5 6 5 5 5 5 5 4 4 3 3 2 2 2 2 2 2 2 2 2 2 2 2
5 5 4 4 6 7 9 12 16 17 15 12 11 12 11 10 9 8 7 6 6 5 6 6 5 5 4 4 4 3 2 2 2 2 2 2 2 3 3 3 2 2 2
6 6 5 6 6 7 8 10 13 15 15 12 11 12 12 10 8 7 7 6 6 6 6 6 6 5 4 4 3 3 3 2 2 2 3 3 4 4 3 3 3 3 2
7 8 8 8 8 8 8 9 10 13 14 12 10 10 10 9 8 7 6 6 6 6 7 6 5 5 4 4 4 4 3 3 3 3 3 4 4 4 4 3 3 3 3
7 7 8 9 10 9 9 9 9 11 14 12 9 8 8 8 7 7 6 6 7 7 7 5 5 5 5 5 4 4 4 3 3 3 3 3 3 3 3 3 3 3 3
6 6 7 9 9 9 9 8 9 11 13 12 9 8 7 7 8 7 6 7 8 8 6 5 5 5 5 4 3 3 3 4 4 4 3 3 3 3 3 3 2 2 3
7 7 6 7 8 9 8 8 9 11 12 11 10 9 8 7 8 8 7 7 8 7 6 5 5 5 5 3 2 2 3 4 4 4 4 3 3 3 3 2 1 1 1
10 9 7 6 7 9 8 8 9 9 10 10 11 11 10 8 8 8 7 7 7 7 6 5 6 6 5 3 2 2 3 4 5 5 4 4 4 3 2 2 1 1 1
13 11 8 7 8 9 9 8 9 9 9 10 12 13 12 9 8 8 8 7 7 6 6 6 6 6 5 4 3 2 3 4 4 4 4 4 3 2 1 2 2 2 2
15 13 10 8 8 9 9 8 9 9 9 10 12 14 13 11 9 8 8 7 7 7 7 7 6 6 6 5 3 2 3 4 4 4 3 3 2 1 1 1 2 2 2
15 14 11 10 10 10 9 8 9 10 10 10 12 14 13 11 9 9 9 9 9 9 9 8 7 7 7 5 3 2 3 4 4 3 3 2 1 0 1 1 1 2 2
14 12 12 13 14 13 11 9 9 10 11 10 10 11 11 9 8 8 10 11 11 11 11 10 8 8 7 5 3 2 2 3 3 2 2 1 0 0 0 0 1 1 1
11 11 12 15 17 16 13 11 12 13 12 10 9 9 8 7 6 7 9 11 12 12 11 10 9 8 6 4 3 1 1 1 1 1 1 1 0 0 0 0 0 1 1
11 11 12 17 20 19 16 14 15 15 13 11 10 9 7 6 6 7 9 11 12 12 11 11 10 8 6 4 2 1 1 1 1 1 1 0 0 0 0 0 1 1 1
12 11 12 16 21 21 19 18 18 16 13 12 11 9 7 6 6 7 9 11 12 12 11 11 10 8 6 4 2 1 1 1 1 1 1 1 1 1 1 1 2 2 2
12 10 11 16 21 23 21 20 19 17 14 12 11 9 7 6 7 7 9 11 12 11 10 10 10 8 6 3 2 1 2 1 1 1 1 2 2 1 1 1 2 2 2
Wind_Speed
12 11 10 10 10 8 7 6 5 4 3 2 2 2 2 1 1 1 2 1 1 1 1 1 1 0 0 1 1 0 0 1 0 0 0 0 1 1 1 1 1 1 2
13 12 11 10 10 9 8 6 5 5 4 2 2 2 1 2 2 1 2 1 1 1 1 1 1 1 1 0 1 0 1 1 1 1 0 0 0 1 0 1 1 1 1
14 13 12 11 11 10 9 7 6 5 4 3 2 2 1 1 1 1 1 1 1 1 1 0 1 1 1 1 2 2 2 2 2 1 1 1 1 0 0 1 1 2 1
15 15 13 12 11 11 10 7 7 6 5 4 3 3 2 2 1 1 1 1 1 1 1 1 1 1 1 1 2 2 2 2 2 2 1 1 1 1 1 0 1 2 2
16 15 15 13 11 11 10 9 7 6 5 4 4 3 2 1 1 1 1 1 2 2 2 1 1 1 1 1 2 1 1 1 2 1 1 1 1 2 2 1 0 1 1
15 14 14 12 11 11 10 10 8 7 6 5 4 3 3 2 1 1 1 1 1 1 1 1 0 0 1 1 1 1 1 1 2 2 1 1 1 1 1 2 2 1 0
13 14 14 13 12 11 10 9 9 8 7 6 4 3 3 2 2 1 1 1 1 0 0 0 1 0 1 1 1 1 1 1 1 2 2 2 1 1 1 2 1 1 0
12 13 13 12 12 11 10 9 9 8 7 6 5 3 3 2 1 1 1 1 1 0 1 1 1 0 1 1 1 1 1 1 1 1 2 2 1 0 1 1 2 1 1
12 13 13 13 12 11 11 10 9 8 7 6 6 4 3 2 1 1 1 0 1 1 2 2 1 1 1 1 1 1 2 1 1 2 1 1 1 0 0 1 1 2 1
11 12 11 12 11 10 10 10 9 8 7 6 5 5 4 3 1 1 1 1 1 2 3 2 2 2 2 2 1 1 2 1 1 1 1 1 1 1 1 1 1 1 2
10 10 10 10 11 11 10 10 9 9 7 6 5 4 5 4 3 2 2 1 1 2 2 2 2 2 2 2 2 2 2 2 2 2 2 2 2 1 1 0 0 1 2
9 10 10 10 10 10 10 10 9 9 8 7 6 5 5 5 4 3 2 2 2 2 2 2 2 2 2 2 2 2 2 2 2 2 2 2 2 2 1 1 1 1 2
9 9 9 8 9 9 8 9 9 9 8 8 7 6 5 5 5 4 3 3 2 3 2 2 2 2 2 2 2 2 2 2 2 2 2 2 2 2 1 1 1 1 2
8 8 8 7 7 7 7 8 8 8 8 8 8 7 6 5 5 4 4 3 3 3 2 2 2 2 2 2 2 1 1 1 1 2 2 2 2 2 2 2 2 2 2
10 9 8 7 7 7 7 6 6 7 7 7 7 7 6 5 5 4 4 3 2 3 2 2 2 1 1 1 2 1 1 1 2 2 2 3 5 6 3 2 2 2 1
9 10 9 8 8 8 7 7 6 7 7 7 7 7 6 6 5 4 4 3 3 2 2 2 2 1 1 3 3 2 1 2 2 2 2 3 4 5 5 6 5 3 2
9 9 9 8 7 7 7 7 7 7 7 7 7 7 7 6 6 6 5 4 3 3 2 2 2 2 2 4 4 3 1 2 2 2 2 2 3 3 3 4 5 4 5
7 8 8 8 7 7 7 6 7 7 7 7 7 7 7 7 6 5 5 4 3 3 2 2 3 2 2 3 3 3 1 1 2 2 2 3 3 3 2 2 3 3 4
5 6 7 7 7 7 8 7 7 7 7 7 7 7 7 7 6 6 5 4 3 3 3 3 3 3 2 1 2 2 1 1 2 2 3 3 3 4 3 2 2 2 2
5 5 6 6 6 6 7 7 7 7 7 7 6 6 6 6 7 6 5 4 4 4 4 3 3 3 3 2 1 1 1 1 2 2 3 4 3 3 3 1 1 1 1
6 5 5 5 5 6 5 6 6 6 6 6 6 5 6 6 6 6 5 5 4 4 4 3 3 3 3 4 2 1 0 0 1 2 2 3 5 4 2 2 1 1 1
6 5 5 5 5 5 5 5 5 5 5 5 6 6 6 6 6 6 5 5 5 5 4 3 3 3 4 4 4 3 1 0 0 1 2 3 5 3 1 1 1 1 1
5 5 5 5 5 5 5 5 4 4 5 5 5 5 5 4 5 6 6 6 5 5 5 5 4 3 4 4 5 5 2 1 0 1 2 4 5 3 2 1 1 1 1
4 5 5 5 5 4 4 4 4 5 5 5 5 5 5 5 5 5 5 6 6 5 4 4 4 4 4 4 4 4 3 3 2 2 3 4 4 2 2 2 2 2 1
4 4 4 4 5 5 4 4 5 5 5 5 5 5 5 5 4 4 2 4 2 3 4 3 3 4 4 4 5 3 3 3 2 2 3 3 3 3 2 2 2 2 2
3 4 4 5 5 5 5 5 5 5 5 5 5 5 5 5 5 5 3 1 1 4 4 3 2 2 5 8 7 5 4 3 3 3 3 3 3 3 3 3 2 2 2
Wind_Direction
163 162 163 158 155 154 154 159 166 159 172 179 192 184 197 210 185 173 155 164 227 173 196 287 194 223 186 223 228 199 309 270 208 22 340 352 33 104 124 119 109 103 100
165 164 164 164 161 159 161 165 168 170 183 188 202 194 201 207 188 178 137 190 220 224 208 206 248 212 185 203 247 201 223 262 221 183 189 249 326 347 138 143 156 119 97
170 169 171 173 170 168 169 176 175 170 182 187 194 214 199 246 181 159 154 198 221 202 304 155 263 283 212 208 218 230 234 242 258 226 189 206 201 133 25 57 99 116 114
172 173 176 176 175 172 171 170 168 170 177 186 203 210 209 210 224 192 167 200 234 236 208 212 224 252 258 239 241 215 248 235 254 261 229 215 195 180 176 353 117 131 125
173 175 177 175 177 175 171 169 166 170 174 189 207 222 227 218 221 197 169 212 217 229 236 194 213 236 259 247 268 276 263 255 264 268 256 243 230 217 175 197 197 98 112
171 171 171 169 176 176 171 168 166 171 174 184 198 204 224 243 248 240 189 216 223 250 284 212 135 297 292 282 279 280 265 273 289 299 298 261 238 230 187 188 199 172 118
170 169 169 169 175 175 170 167 165 170 176 181 194 192 209 231 232 234 215 235 254 218 315 338 108 305 307 306 302 275 281 289 281 270 286 290 272 246 186 172 188 172 159
169 170 169 169 174 173 169 167 164 169 174 178 186 186 198 211 212 227 258 233 271 197 103 78 97 44 331 336 353 325 310 338 309 295 290 300 308 318 186 181 167 177 192
167 165 167 170 172 171 169 167 161 163 169 175 177 174 180 193 194 174 218 275 318 83 92 85 85 61 38 11 11 6 2 9 354 344 343 338 340 311 234 152 182 180 184
159 160 166 169 168 165 159 159 157 159 165 169 178 167 166 167 168 114 117 54 56 66 89 83 79 70 52 29 19 35 22 20 18 19 22 15 356 3 31 165 218 178 157
155 156 162 164 159 158 156 154 155 155 160 164 163 159 156 151 142 131 118 102 71 81 85 77 73 73 67 50 37 42 41 30 31 22 36 35 30 13 353 324 163 110 117
151 151 154 155 152 154 156 155 158 161 163 162 158 158 142 143 146 137 120 121 114 101 91 82 70 64 62 53 46 39 41 37 39 32 33 26 33 30 6 2 31 96 120
139 138 138 142 147 152 153 157 161 164 164 162 161 155 151 147 147 146 142 136 123 112 107 98 88 74 59 57 44 42 56 51 47 44 42 34 39 25 28 36 43 63 96
136 138 137 141 145 148 152 158 163 162 159 158 160 158 159 154 151 149 147 145 139 124 115 108 99 92 64 45 34 30 78 94 77 61 51 45 50 39 34 46 57 76 94
148 146 144 143 149 150 154 158 160 156 154 155 157 156 155 150 150 151 146 140 143 142 129 121 112 110 102 36 12 336 84 87 82 70 70 67 69 61 54 58 48 77 98
153 152 153 154 159 161 163 162 162 156 155 159 158 153 157 157 157 155 147 143 144 130 128 123 112 94 65 16 23 32 30 67 78 79 84 91 75 76 77 75 63 57 75
156 155 156 160 163 162 160 163 160 158 160 162 161 161 164 165 166 164 154 156 151 144 139 132 117 108 59 28 27 26 44 64 59 63 64 66 60 66 76 77 69 54 51
154 155 159 161 161 160 159 161 162 163 165 169 170 169 168 166 163 160 160 158 152 153 155 145 140 134 88 39 29 12 104 100 84 72 68 69 62 49 51 86 81 65 43
146 153 160 160 157 159 159 163 168 166 170 175 176 171 168 167 168 168 166 161 161 167 166 154 149 142 115 52 30 3 151 123 105 92 77 81 81 55 48 84 88 90 93
136 144 153 152 151 154 159 167 174 175 176 175 174 168 169 172 173 169 167 165 168 174 171 164 160 153 141 125 64 3 204 141 128 113 101 84 86 89 52 85 109 106 97
136 140 141 144 148 155 160 171 176 179 173 168 166 169 171 173 171 166 169 171 178 181 175 164 163 160 152 154 155 135 252 159 148 142 128 113 110 105 65 32 75 115 138
139 141 137 141 145 156 164 172 178 172 163 162 165 170 173 185 176 168 175 176 181 182 181 180 183 173 162 166 173 172 192 340 73 128 123 123 139 143 140 63 55 53 7
142 147 146 147 153 161 169 178 175 167 166 169 173 171 176 184 172 175 182 186 192 198 192 185 189 185 169 162 166 173 177 130 104 87 125 152 172 176 181 206 233 249 250
151 154 158 162 162 163 167 168 160 161 165 170 171 171 176 186 184 188 193 199 201 201 195 190 194 185 171 168 175 183 180 172 174 164 149 166 180 202 201 188 216 225 238
161 165 164 167 164 160 165 164 158 162 172 178 179 180 187 192 192 194 213 213 206 199 203 203 193 187 184 175 172 181 183 189 170 165 176 186 186 194 202 203 207 206 215
158 177 176 176 174 171 172 166 163 170 178 187 188 187 191 190 191 189 184 74 143 155 154 139 157 152 146 149 155 163 170 170 163 184 203 200 201 205 207 208 204 208 217